Weather History for Lander, WY

Change the Weather History Date:

Wednesday, March 28, 2012

  Actual Average Record
Temperature  
Mean Temperature 49 °F 39 °F  
Max Temperature 68 °F 51 °F 72 °F (1986)
Min Temperature 29 °F 27 °F -3 °F (1944)
Degree Days  
Heating Degree Days 16 26  
Month to date heating degree days 597 839  
Since 1 July heating degree days 5940 6543  
Cooling Degree Days 0 0  
Month to date cooling degree days 0 0  
Year to date cooling degree days 0 0  
Moisture  
Dew Point 21 °F    
Average Humidity 40    
Maximum Humidity 63    
Minimum Humidity 16    
Precipitation  
Precipitation 0.00 in 0.04 in 1.02 in (2007)
Month to date precipitation 0.36 1.01  
Year to date precipitation 1.67 2.00  
Snow  
Snow 0.00 in 0.60 in - ()
Month to date snowfall 7.5 14.3  
Since 1 July snowfall 59.2 67.9  
Snow Depth 0.00 in    
Sea Level Pressure  
Sea Level Pressure 29.81 in    
Wind  
Wind Speed 7 mph (West)    
Max Wind Speed 25 mph    
Max Gust Speed 44 mph    
Visibility 10 miles    
Events      
T = Trace of Precipitation, MM = Missing Value Source: NWS Daily Summary

Daily Weather History Graph

Daily Weather History Graph

Search for Another Location

Airport:

Trip Planner

Search our weather history database for the weather conditions in past years. The results will help you decide how hot, cold, wet, or windy it might be!

Date:

Astronomy

Mar. 28, 2012 Rise Set
Actual Time 7:03 AM MDT 7:37 PM MDT
Civil Twilight 6:34 AM MDT 8:05 PM MDT
Nautical Twilight 6:01 AM MDT 8:39 PM MDT
Astronomical Twilight 5:26 AM MDT 9:14 PM MDT
Moon 10:15 AM MDT (3/28) 12:49 AM MDT (3/28)
Length of Visible Light 13h 30m
Length of Day
12h 34m
Waxing Crescent, 31% of the Moon is Illuminated
Mar 28
Waxing Crescent
Mar 30
First Quarter
Apr 6
Full
Apr 13
Last Quarter
Apr 21
New

Hourly Weather History & Observations

Time (MDT) Temp. Windchill Dew Point Humidity Pressure Visibility Wind Dir Wind Speed Gust Speed Precip Events Conditions
12:53 AM 41.0 °F 38.0 °F 18.0 °F 40% 29.89 in 10.0 mi SSE 4.6 mph - N/A   Clear
1:53 AM 37.9 °F - 19.0 °F 47% 29.89 in 10.0 mi Calm Calm - N/A   Clear
2:53 AM 39.0 °F 34.8 °F 19.0 °F 45% 29.87 in 10.0 mi West 5.8 mph - N/A   Overcast
3:53 AM 37.9 °F 33.5 °F 19.0 °F 47% 29.85 in 10.0 mi SW 5.8 mph - N/A   Clear
4:53 AM 36.0 °F 31.1 °F 19.0 °F 50% 29.84 in 10.0 mi NW 5.8 mph - N/A   Clear
5:53 AM 35.1 °F - 19.0 °F 52% 29.85 in 10.0 mi Calm Calm - N/A   Clear
6:53 AM 30.9 °F 27.5 °F 19.0 °F 61% 29.86 in 10.0 mi SSE 3.5 mph - N/A   Clear
7:53 AM 33.1 °F - 19.0 °F 56% 29.88 in 10.0 mi Calm Calm - N/A   Clear
8:53 AM 37.0 °F 34.5 °F 21.9 °F 54% 29.86 in 10.0 mi North 3.5 mph - N/A   Clear
9:53 AM 44.1 °F - 21.9 °F 42% 29.86 in 10.0 mi Calm Calm - N/A   Clear
10:53 AM 50.0 °F - 21.0 °F 32% 29.83 in 10.0 mi NNW 4.6 mph - N/A   Clear
11:53 AM 55.0 °F - 21.9 °F 28% 29.79 in 10.0 mi Variable 3.5 mph - N/A   Clear
12:53 PM 61.0 °F - 19.9 °F 21% 29.73 in 10.0 mi NNE 6.9 mph - N/A   Clear
1:53 PM 62.1 °F - 18.0 °F 18% 29.73 in 10.0 mi North 6.9 mph - N/A   Clear
2:53 PM 64.9 °F - 18.0 °F 16% 29.68 in 10.0 mi Variable 3.5 mph - N/A   Mostly Cloudy
3:53 PM 66.0 °F - 19.9 °F 17% 29.69 in 10.0 mi West 13.8 mph 21.9 mph N/A   Scattered Clouds
4:53 PM 62.1 °F - 21.9 °F 21% 29.74 in 10.0 mi SW 17.3 mph 25.3 mph N/A   Scattered Clouds
5:53 PM 57.9 °F - 25.0 °F 28% 29.78 in 10.0 mi WSW 18.4 mph 25.3 mph N/A   Overcast
6:53 PM 52.0 °F - 27.0 °F 38% 29.84 in 10.0 mi WSW 12.7 mph - N/A   Mostly Cloudy
7:53 PM 50.0 °F - 28.0 °F 43% 29.86 in 10.0 mi NW 15.0 mph 23.0 mph N/A   Scattered Clouds
8:33 PM 50.0 °F - 23.0 °F 35% 29.86 in 10.0 mi West 25.3 mph 43.7 mph N/A   Partly Cloudy
8:53 PM 50.0 °F - 24.1 °F 36% 29.81 in 10.0 mi West 25.3 mph 42.6 mph N/A   Clear
9:53 PM 48.9 °F - 24.1 °F 38% 29.81 in 10.0 mi East 9.2 mph - N/A   Overcast
10:53 PM 48.0 °F - 24.1 °F 39% 29.79 in 10.0 mi South 3.5 mph - N/A   Clear
11:53 PM 46.9 °F - 24.1 °F 41% 29.77 in 10.0 mi South 3.5 mph - N/A   Scattered Clouds